Zurück zum Katalog

METEOR 1-17 DEB

AktivPO
NORAD 57543·DEBRIS·🇷🇺 Russia

Gestartet Apr 24, 1974 von Plesetsk Cosmodrome

Loading…

Nächste Überflüge (nächste 24 Stunden)

TLE

AktuellSource: Space-Track

Epoche: Sep 14, 2026, 03:55 UTC

1 57543U 74025J   26257.16353610  .00003185  00000-0  14284-2 0  9997
2 57543  81.1984 196.6092 0012224  70.0902 290.1591 14.22253084170218

Verfolge METEOR 1-17 DEB in Echtzeit mit AllMySat

Download on the App Store